This demonstration page uses our WeatherBlox Daily Observations layout. Learn more.

Left ArrowRight Arrow

Hourly Observations for May 26, 2018

Temp ( °F °C ) Dew Point ( °F °C ) Humidity (%) Winds ( mph kmh ) Pressure ( in mb ) Visibility ( mi km ) Precip ( " mm )
12:53 am 00:53 Clear 76 24.4 63 17.2 64 64 SSW 7 11 29.75 1008 10 16 0.00 0.00
1:53 am 01:53 Clear 74 23.3 63 17.2 69 69 SW 6 9 29.75 1008 10 16 0.00 0.00
2:53 am 02:53 Clear 71 21.7 62 16.7 73 73 WSW 3 6 29.76 1008 10 16 0.00 0.00
3:53 am 03:53 Clear 70 21.1 61 16.1 73 73 WSW 6 9 29.76 1008 10 16 0.00 0.00
4:53 am 04:53 Clear 68 20 60 15.6 76 76 W 3 6 29.76 1008 10 16 0.00 0.00
5:53 am 05:53 Clear 68 20 59 15 73 73 WSW 3 6 29.76 1008 10 16 0.00 0.00
6:53 am 06:53 Sunny 69 20.6 58 14.4 68 68 W 5 7 29.78 1008 10 16 0.00 0.00
7:53 am 07:53 Sunny 74 23.3 61 16.1 64 64 Calm 29.79 1009 10 16 0.00 0.00
8:53 am 08:53 Sunny 82 27.8 61 16.1 49 49 WNW 7 11 29.79 1009 10 16 0.00 0.00
9:53 am 09:53 Sunny 85 29.4 64 17.8 50 50 WNW 12 19 29.80 1009 10 16 0.00 0.00
10:53 am 10:53 Sunny 87 30.6 64 17.8 46 46 W 10 17 29.79 1009 10 16 0.00 0.00
11:53 am 11:53 Sunny 90 32.2 63 17.2 41 41 W 6 9 29.78 1008 10 16 0.00 0.00
12:53 pm 12:53 Sunny 92 33.3 59 15 33 33 Calm 29.76 1008 10 16 0.00 0.00
1:53 pm 13:53 Sunny 94 34.4 59 15 31 31 ESE 5 7 29.75 1008 10 16 0.00 0.00
2:53 pm 14:53 Sunny 95 35 56 13.3 27 27 S 10 17 29.74 1007 10 16 0.00 0.00
3:53 pm 15:53 Sunny 96 35.6 55 12.8 25 25 SSW 7 11 29.73 1007 10 16 0.00 0.00
4:53 pm 16:53 Sunny 95 35 55 12.8 26 26 S 7 11 29.72 1006 10 16 0.00 0.00
5:53 pm 17:53 Sunny 95 35 53 11.7 24 24 SSW 10 17 29.71 1006 10 16 0.00 0.00
6:53 pm 18:53 Sunny 94 34.4 54 12.2 26 26 SSW 8 13 29.71 1006 10 16 0.00 0.00
7:53 pm 19:53 Sunny 92 33.3 56 13.3 30 30 S 7 11 29.72 1006 10 16 0.00 0.00
8:53 pm 20:53 Sunny 87 30.6 57 13.9 36 36 S 6 9 29.73 1007 10 16 0.00 0.00
9:53 pm 21:53 Clear 84 28.9 57 13.9 40 40 S 5 7 29.74 1007 10 16 0.00 0.00
10:53 pm 22:53 Clear 81 27.2 57 13.9 44 44 SSW 6 9 29.75 1008 10 16 0.00 0.00
11:53 pm 23:53 Clear 80 26.7 58 14.4 47 47 SSW 9 15 29.76 1008 10 16 0.00 0.00

Powered by AerisWeather